Hourly Weather Roundup
Issued by NWS Central Illinois

Home | Current Version | Previous Version | Text Only | Print | Product List | Glossary On
Versions: 1 2 3 4 5 6 7 8 9 10 11 12 13 14 15 16 17 18 19 20 21 22 23 24 25 26 27 28 29 30 31 32 33 34 35 36 37 38 39 40 41 42 43 44 45 46 47 48 49 50
000
NZUS43 KILX 211110
HWRILX

AREA WEATHER ROUNDUP
NATIONAL WEATHER SERVICE, LINCOLN IL
500 AM CST SAT JAN 21 2017


CITY           SKY/WX    TMP DP  RH WIND       PRES   REMARKS
BLOOMINGTON    CLEAR     46  45  96 S14       29.53F
CHAMPAIGN      CLEAR     49  46  90 S13       29.57F
DANVILLE       CLEAR     49  48  97 S9        29.57F
DECATUR        CLEAR     49  48  97 S14       29.54F
EFFINGHAM      CLEAR     49  49 100 SE6       29.60F
FLORA          PTCLDY    48  47  96 S6        29.61S
GALESBURG      MOCLDY    43  43 100 SE7       29.46F FOG
JACKSONVILLE   CLEAR     50  46  87 S13       29.50S
LACON          CLEAR     46  46  99 S7        29.48F
LAWRENCEVILLE  PTCLDY    48  48 100 S7        29.64F
LITCHFIELD     CLEAR     48  47  95 S9        29.54F
$$


CITY           SKY/WX    TMP DP  RH WIND       PRES   REMARKS
LINCOLN        CLEAR     49  48  99 S9        29.52F
MACOMB         CLEAR     44  44 100 S9        29.48F FOG
MATTOON        PTCLDY    49  48  97 S9        29.58F
MT CARMEL AP   CLOUDY    48  47  96 SE5       29.64S FOG
OLNEY-NOBLE AP PTCLDY    48  48 100 SE6       29.62S
PARIS          CLEAR     48  48  99 S7        29.61F
PEORIA         CLEAR     47  46  97 S9        29.49F FOG
PONTIAC        CLEAR     46  46 100 S10       29.53F FOG
RANTOUL        FOG       46  46  99 SE8       29.57F VSB 1/2
SPRINGFIELD    CLEAR     52  48  86 S14       29.52F
TAYLORVILLE    PTCLDY    50  48  92 S10G18    29.54F
$$

...REGIONAL REPORTS...


CITY           SKY/WX    TMP DP  RH WIND       PRES   REMARKS
CHICAGO O`HARE CLOUDY    47  46  97 S8        29.53S FOG
KANKAKEE       CLEAR     48  48  97 S8        29.56F
MOLINE         CLEAR     47  44  90 S8        29.43F
MOUNT STERLING PTCLDY    43  43  99 SE9       29.46F
MOUNT VERNON   PTCLDY    48  47  96 S5        29.61F
PITTSFIELD     CLEAR     49  45  84 S7        29.48F
QUINCY         CLEAR     50  43  77 S10       29.45F
ROCKFORD       FOG       45  44  97 SE7       29.50F VSB 3/4
$$


CITY           SKY/WX    TMP DP  RH WIND       PRES   REMARKS
BURLINGTON     CLEAR     45  45 100 S9        29.43F
CEDAR RAPIDS   FOG       43  43 100 S8        29.40S VSB 1/4
DES MOINES     FOG       43  42  97 S6        29.39S VSB 1/4
KIRKSVILLE     CLEAR     37  36  96 S6        29.40F WCI  32
OTTUMWA        CLOUDY    45  43  93 S10       29.40S FOG
ST LOUIS       MOCLDY    53  46  77 S7        29.52F
$$


CITY           SKY/WX    TMP DP  RH WIND       PRES   REMARKS
TERRE HAUTE    PTCLDY    49  47  93 S6        29.63F
EVANSVILLE     CLOUDY    50  48  93 CALM      29.68R
INDIANAPOLIS   PTCLDY    49  48  97 SE8       29.65S
LAFAYETTE      CLEAR     50  49  96 VRB3      29.62R
MADISON        FOG       37  37 100 SE7       29.50F VSB 3/4 WCI  32
MILWAUKEE      FOG       39  38  96 W6        29.55F VSB 1/8 WCI  35
$$






USA.gov is the U.S. government's official web portal to all federal, state and local government web resources and services.